Location: Llanfihangel-Ystrad
(52.1833°N, 4.1667°W)
Time: 04:25:23
(UTC+00:00)

NOSS 2-1 (D) - Pass Details

Date: 17 February 2020
Orbit: 450 x 1753 km, 63.3° (Epoch: 05 April)

Event Time Altitude Azimuth Distance (km) Brightness Sun altitude
Exits shadow 06:03:38 25° 265° (W) 999 4.0 -13.7°
Maximum altitude 06:05:21 45° 325° (NW) 679 3.5 -13.4°
Drops below altitude 10° 06:09:15 10° 40° (NE) 1,877 6.6 -12.8°
Sets 06:11:50 0° 47° (NE) 2,942 7.7 -12.5°
